User: anonymous   Login
Location: Standeford and Andreas Observatories
(44.1397°N, 93.9969°W)
Time: 03:14:33
(UTC-05:00)
Language:

Cosmos 1500 Rocket - Orbit

View from above orbital plane
View from above orbital plane
View from above satellite
View from above satellite

Ground track
Ground track

The orbit data is extracted from the following two-line orbital elements,

1 14373U 83099B   16239.24385220  .00000096  00000-0  86538-5 0  9994
2 14373  82.5434 160.1770 0021608 117.7935 354.2228 14.83626542777141
Epoch (UTC): 26 August 2016 05:51:08
Eccentricity: 0.0021608
inclination: 82.5434°
perigee height: 603 km
apogee height: 633 km
right ascension of ascending node: 160.1770°
argument of perigee: 117.7935°
revolutions per day: 14.83626542
mean anomaly at epoch: 354.2228°
orbit number at epoch: 77714

The dashed part of the orbit path shows where the satellite is in the earth's shadow,  

DLR